datetime,flow
1978-10-01,55.0
1978-10-02,54.0
1978-10-03,54.0
1978-10-04,54.0
1978-10-05,54.0
1978-10-06,53.0
1978-10-07,54.0
1978-10-08,55.0
1978-10-09,56.0
1978-10-10,56.0
1978-10-11,56.0
1978-10-12,56.0
1978-10-13,56.0
1978-10-14,56.0
1978-10-15,56.0
1978-10-16,56.0
1978-10-17,56.0
1978-10-18,57.0
1978-10-19,57.0
1978-10-20,57.0
1978-10-21,57.0
1978-10-22,57.0
1978-10-23,58.0
1978-10-24,58.0
1978-10-25,58.0
1978-10-26,58.0
1978-10-27,58.0
1978-10-28,59.0
1978-10-29,59.0
1978-10-30,58.0
1978-10-31,59.0
1978-11-01,57.0
1978-11-02,55.0
1978-11-03,56.0
1978-11-04,57.0
1978-11-05,56.0
1978-11-06,55.0
1978-11-07,55.0
1978-11-08,56.0
1978-11-09,55.0
1978-11-10,54.0
1978-11-11,52.0
1978-11-12,50.0
1978-11-13,50.0
1978-11-14,50.0
1978-11-15,52.0
1978-11-16,58.0
1978-11-17,58.0
1978-11-18,58.0
1978-11-19,59.0
1978-11-20,60.0
1978-11-21,59.0
1978-11-22,59.0
1978-11-23,59.0
1978-11-24,59.0
1978-11-25,59.0
1978-11-26,58.0
1978-11-27,58.0
1978-11-28,60.0
1978-11-29,65.0
1978-11-30,65.0
1978-12-01,65.0
1978-12-02,63.0
1978-12-03,62.0
1978-12-04,64.0
1978-12-05,63.0
1978-12-06,60.0
1978-12-07,50.0
1978-12-08,50.0
1978-12-09,56.0
1978-12-10,62.0
1978-12-11,59.0
1978-12-12,58.0
1978-12-13,57.0
1978-12-14,56.0
1978-12-15,55.0
1978-12-16,55.0
1978-12-17,56.0
1978-12-18,56.0
1978-12-19,46.0
1978-12-20,46.0
1978-12-21,52.0
1978-12-22,57.0
1978-12-23,58.0
1978-12-24,59.0
1978-12-25,59.0
1978-12-26,59.0
1978-12-27,59.0
1978-12-28,52.0
1978-12-29,46.0
1978-12-30,46.0
1978-12-31,46.0
1979-01-01,46.0
1979-01-02,50.0
1979-01-03,58.0
1979-01-04,66.0
1979-01-05,56.0
1979-01-06,54.0
1979-01-07,54.0
1979-01-08,54.0
1979-01-09,58.0
1979-01-10,63.0
1979-01-11,93.0
1979-01-12,79.0
1979-01-13,70.0
1979-01-14,64.0
1979-01-15,69.0
1979-01-16,65.0
1979-01-17,63.0
1979-01-18,63.0
1979-01-19,62.0
1979-01-20,61.0
1979-01-21,60.0
1979-01-22,59.0
1979-01-23,58.0
1979-01-24,58.0
1979-01-25,57.0
1979-01-26,59.0
1979-01-27,55.0
1979-01-28,54.0
1979-01-29,48.0
1979-01-30,46.0
1979-01-31,47.0
1979-02-01,48.0
1979-02-02,49.0
1979-02-03,51.0
1979-02-04,51.0
1979-02-05,52.0
1979-02-06,53.0
1979-02-07,53.0
1979-02-08,54.0
1979-02-09,56.0
1979-02-10,58.0
1979-02-11,59.0
1979-02-12,61.0
1979-02-13,67.0
1979-02-14,67.0
1979-02-15,63.0
1979-02-16,62.0
1979-02-17,59.0
1979-02-18,59.0
1979-02-19,59.0
1979-02-20,59.0
1979-02-21,59.0
1979-02-22,59.0
1979-02-23,59.0
1979-02-24,59.0
1979-02-25,59.0
1979-02-26,60.0
1979-02-27,61.0
1979-02-28,63.0
1979-03-01,62.0
1979-03-02,61.0
1979-03-03,64.0
1979-03-04,66.0
1979-03-05,73.0
1979-03-06,74.0
1979-03-07,73.0
1979-03-08,71.0
1979-03-09,69.0
1979-03-10,69.0
1979-03-11,68.0
1979-03-12,68.0
1979-03-13,67.0
1979-03-14,67.0
1979-03-15,68.0
1979-03-16,69.0
1979-03-17,68.0
1979-03-18,68.0
1979-03-19,68.0
1979-03-20,68.0
1979-03-21,68.0
1979-03-22,68.0
1979-03-23,67.0
1979-03-24,67.0
1979-03-25,66.0
1979-03-26,66.0
1979-03-27,67.0
1979-03-28,67.0
1979-03-29,67.0
1979-03-30,66.0
1979-03-31,65.0
1979-04-01,65.0
1979-04-02,65.0
1979-04-03,65.0
1979-04-04,64.0
1979-04-05,64.0
1979-04-06,67.0
1979-04-07,66.0
1979-04-08,66.0
1979-04-09,66.0
1979-04-10,66.0
1979-04-11,67.0
1979-04-12,66.0
1979-04-13,65.0
1979-04-14,64.0
1979-04-15,65.0
1979-04-16,65.0
1979-04-17,66.0
1979-04-18,65.0
1979-04-19,65.0
1979-04-20,64.0
1979-04-21,64.0
1979-04-22,66.0
1979-04-23,67.0
1979-04-24,67.0
1979-04-25,67.0
1979-04-26,66.0
1979-04-27,64.0
1979-04-28,63.0
1979-04-29,63.0
1979-04-30,63.0
1979-05-01,65.0
1979-05-02,64.0
1979-05-03,64.0
1979-05-04,65.0
1979-05-05,68.0
1979-05-06,71.0
1979-05-07,72.0
1979-05-08,71.0
1979-05-09,68.0
1979-05-10,66.0
1979-05-11,65.0
1979-05-12,64.0
1979-05-13,64.0
1979-05-14,64.0
1979-05-15,62.0
1979-05-16,59.0
1979-05-17,58.0
1979-05-18,59.0
1979-05-19,59.0
1979-05-20,58.0
1979-05-21,58.0
1979-05-22,59.0
1979-05-23,59.0
1979-05-24,60.0
1979-05-25,59.0
1979-05-26,59.0
1979-05-27,58.0
1979-05-28,58.0
1979-05-29,57.0
1979-05-30,57.0
1979-05-31,54.0
1979-06-01,52.0
1979-06-02,51.0
1979-06-03,51.0
1979-06-04,51.0
1979-06-05,51.0
1979-06-06,51.0
1979-06-07,51.0
1979-06-08,52.0
1979-06-09,52.0
1979-06-10,51.0
1979-06-11,50.0
1979-06-12,49.0
1979-06-13,47.0
1979-06-14,45.0
1979-06-15,44.0
1979-06-16,43.0
1979-06-17,42.0
1979-06-18,47.0
1979-06-19,49.0
1979-06-20,49.0
1979-06-21,50.0
1979-06-22,50.0
1979-06-23,49.0
1979-06-24,50.0
1979-06-25,50.0
1979-06-26,49.0
1979-06-27,48.0
1979-06-28,48.0
1979-06-29,46.0
1979-06-30,46.0
1979-07-01,47.0
1979-07-02,47.0
1979-07-03,47.0
1979-07-04,47.0
1979-07-05,47.0
1979-07-06,47.0
1979-07-07,46.0
1979-07-08,46.0
1979-07-09,46.0
1979-07-10,46.0
1979-07-11,45.0
1979-07-12,44.0
1979-07-13,44.0
1979-07-14,44.0
1979-07-15,44.0
1979-07-16,46.0
1979-07-17,44.0
1979-07-18,46.0
1979-07-19,46.0
1979-07-20,46.0
1979-07-21,44.0
1979-07-22,43.0
1979-07-23,43.0
1979-07-24,43.0
1979-07-25,43.0
1979-07-26,42.0
1979-07-27,41.0
1979-07-28,40.0
1979-07-29,40.0
1979-07-30,40.0
1979-07-31,40.0
1979-08-01,40.0
1979-08-02,43.0
1979-08-03,44.0
1979-08-04,43.0
1979-08-05,38.0
1979-08-06,40.0
1979-08-07,44.0
1979-08-08,45.0
1979-08-09,45.0
1979-08-10,45.0
1979-08-11,45.0
1979-08-12,45.0
1979-08-13,46.0
1979-08-14,47.0
1979-08-15,46.0
1979-08-16,46.0
1979-08-17,46.0
1979-08-18,45.0
1979-08-19,45.0
1979-08-20,48.0
1979-08-21,53.0
1979-08-22,58.0
1979-08-23,52.0
1979-08-24,47.0
1979-08-25,45.0
1979-08-26,45.0
1979-08-27,45.0
1979-08-28,46.0
1979-08-29,47.0
1979-08-30,49.0
1979-08-31,47.0
1979-09-01,47.0
1979-09-02,47.0
1979-09-03,46.0
1979-09-04,43.0
1979-09-05,46.0
1979-09-06,50.0
1979-09-07,50.0
1979-09-08,50.0
1979-09-09,49.0
1979-09-10,49.0
1979-09-11,49.0
1979-09-12,50.0
1979-09-13,48.0
1979-09-14,45.0
1979-09-15,45.0
1979-09-16,46.0
1979-09-17,46.0
1979-09-18,46.0
1979-09-19,46.0
1979-09-20,46.0
1979-09-21,46.0
1979-09-22,46.0
1979-09-23,46.0
1979-09-24,47.0
1979-09-25,47.0
1979-09-26,49.0
1979-09-27,50.0
1979-09-28,51.0
1979-09-29,51.0
1979-09-30,51.0
1979-10-01,51.0
1979-10-02,48.0
1979-10-03,47.0
1979-10-04,47.0
1979-10-05,47.0
1979-10-06,47.0
1979-10-07,45.0
1979-10-08,43.0
1979-10-09,43.0
1979-10-10,44.0
1979-10-11,46.0
1979-10-12,46.0
1979-10-13,46.0
1979-10-14,47.0
1979-10-15,56.0
1979-10-16,61.0
1979-10-17,57.0
1979-10-18,60.0
1979-10-19,63.0
1979-10-20,62.0
1979-10-21,60.0
1979-10-22,59.0
1979-10-23,59.0
1979-10-24,59.0
1979-10-25,60.0
1979-10-26,60.0
1979-10-27,59.0
1979-10-28,60.0
1979-10-29,59.0
1979-10-30,67.0
1979-10-31,69.0
1979-11-01,62.0
1979-11-02,59.0
1979-11-03,60.0
1979-11-04,62.0
1979-11-05,62.0
1979-11-06,61.0
1979-11-07,59.0
1979-11-08,59.0
1979-11-09,59.0
1979-11-10,59.0
1979-11-11,59.0
1979-11-12,59.0
1979-11-13,58.0
1979-11-14,58.0
1979-11-15,58.0
1979-11-16,61.0
1979-11-17,68.0
1979-11-18,68.0
1979-11-19,66.0
1979-11-20,63.0
1979-11-21,60.0
1979-11-22,60.0
1979-11-23,60.0
1979-11-24,62.0
1979-11-25,63.0
1979-11-26,63.0
1979-11-27,60.0
1979-11-28,58.0
1979-11-29,58.0
1979-11-30,58.0
1979-12-01,58.0
1979-12-02,61.0
1979-12-03,69.0
1979-12-04,69.0
1979-12-05,68.0
1979-12-06,67.0
1979-12-07,66.0
1979-12-08,64.0
1979-12-09,63.0
1979-12-10,62.0
1979-12-11,59.0
1979-12-12,58.0
1979-12-13,59.0
1979-12-14,59.0
1979-12-15,59.0
1979-12-16,58.0
1979-12-17,58.0
1979-12-18,59.0
1979-12-19,59.0
1979-12-20,59.0
1979-12-21,59.0
1979-12-22,58.0
1979-12-23,57.0
1979-12-24,57.0
1979-12-25,58.0
1979-12-26,58.0
1979-12-27,57.0
1979-12-28,57.0
1979-12-29,57.0
1979-12-30,58.0
1979-12-31,60.0
1980-01-01,61.0
1980-01-02,62.0
1980-01-03,61.0
1980-01-04,61.0
1980-01-05,62.0
1980-01-06,61.0
1980-01-07,60.0
1980-01-08,60.0
1980-01-09,60.0
1980-01-10,59.0
1980-01-11,58.0
1980-01-12,81.7
1980-01-13,91.6
1980-01-14,83.5
1980-01-15,79.0
1980-01-16,79.0
1980-01-17,79.0
1980-01-18,76.0
1980-01-19,74.0
1980-01-20,68.0
1980-01-21,67.0
1980-01-22,66.0
1980-01-23,65.0
1980-01-24,64.0
1980-01-25,63.0
1980-01-26,61.0
1980-01-27,60.0
1980-01-28,56.0
1980-01-29,54.0
1980-01-30,54.0
1980-01-31,54.0
1980-02-01,56.0
1980-02-02,60.0
1980-02-03,64.0
1980-02-04,64.0
1980-02-05,63.0
1980-02-06,63.0
1980-02-07,62.0
1980-02-08,62.0
1980-02-09,61.0
1980-02-10,61.0
1980-02-11,61.0
1980-02-12,61.0
1980-02-13,60.0
1980-02-14,60.0
1980-02-15,61.0
1980-02-16,61.0
1980-02-17,62.0
1980-02-18,65.0
1980-02-19,65.0
1980-02-20,66.0
1980-02-21,66.0
1980-02-22,65.0
1980-02-23,65.0
1980-02-24,64.0
1980-02-25,64.0
1980-02-26,64.0
1980-02-27,64.0
1980-02-28,64.0
1980-02-29,64.0
1980-03-01,63.0
1980-03-02,65.0
1980-03-03,66.0
1980-03-04,67.0
1980-03-05,67.0
1980-03-06,67.0
1980-03-07,66.0
1980-03-08,65.0
1980-03-09,64.0
1980-03-10,64.0
1980-03-11,64.0
1980-03-12,63.0
1980-03-13,65.0
1980-03-14,66.0
1980-03-15,67.0
1980-03-16,66.0
1980-03-17,67.0
1980-03-18,67.0
1980-03-19,66.0
1980-03-20,66.0
1980-03-21,65.0
1980-03-22,65.0
1980-03-23,64.0
1980-03-24,64.0
1980-03-25,64.0
1980-03-26,64.0
1980-03-27,63.0
1980-03-28,62.0
1980-03-29,62.0
1980-03-30,62.0
1980-03-31,60.0
1980-04-01,61.0
1980-04-02,61.0
1980-04-03,63.0
1980-04-04,63.0
1980-04-05,64.0
1980-04-06,65.0
1980-04-07,64.0
1980-04-08,65.0
1980-04-09,65.0
1980-04-10,66.0
1980-04-11,66.0
1980-04-12,66.0
1980-04-13,65.0
1980-04-14,65.0
1980-04-15,65.0
1980-04-16,65.0
1980-04-17,66.0
1980-04-18,68.0
1980-04-19,70.0
1980-04-20,74.0
1980-04-21,76.0
1980-04-22,73.0
1980-04-23,74.0
1980-04-24,74.0
1980-04-25,74.0
1980-04-26,74.0
1980-04-27,72.0
1980-04-28,74.0
1980-04-29,74.0
1980-04-30,73.0
1980-05-01,73.0
1980-05-02,72.0
1980-05-03,69.0
1980-05-04,68.0
1980-05-05,68.0
1980-05-06,69.0
1980-05-07,69.0
1980-05-08,68.0
1980-05-09,69.0
1980-05-10,72.0
1980-05-11,71.0
1980-05-12,68.0
1980-05-13,71.0
1980-05-14,70.0
1980-05-15,68.0
1980-05-16,65.0
1980-05-17,63.0
1980-05-18,65.0
1980-05-19,66.0
1980-05-20,66.0
1980-05-21,66.0
1980-05-22,67.0
1980-05-23,67.0
1980-05-24,66.0
1980-05-25,65.0
1980-05-26,64.0
1980-05-27,63.0
1980-05-28,62.0
1980-05-29,60.0
1980-05-30,58.0
1980-05-31,58.0
1980-06-01,58.0
1980-06-02,58.0
1980-06-03,60.0
1980-06-04,59.0
1980-06-05,59.0
1980-06-06,60.0
1980-06-07,66.0
1980-06-08,78.0
1980-06-09,72.0
1980-06-10,68.0
1980-06-11,66.0
1980-06-12,67.0
1980-06-13,66.0
1980-06-14,66.0
1980-06-15,65.0
1980-06-16,64.0
1980-06-17,62.0
1980-06-18,61.0
1980-06-19,60.0
1980-06-20,57.0
1980-06-21,53.0
1980-06-22,52.0
1980-06-23,55.0
1980-06-24,54.0
1980-06-25,54.0
1980-06-26,54.0
1980-06-27,54.0
1980-06-28,54.0
1980-06-29,52.0
1980-06-30,52.0
1980-07-01,52.0
1980-07-02,52.0
1980-07-03,53.0
1980-07-04,54.0
1980-07-05,53.0
1980-07-06,51.0
1980-07-07,52.0
1980-07-08,51.0
1980-07-09,50.0
1980-07-10,51.0
1980-07-11,51.0
1980-07-12,50.0
1980-07-13,50.0
1980-07-14,51.0
1980-07-15,50.0
1980-07-16,49.0
1980-07-17,50.0
1980-07-18,49.0
1980-07-19,49.0
1980-07-20,49.0
1980-07-21,49.0
1980-07-22,48.0
1980-07-23,48.0
1980-07-24,48.0
1980-07-25,47.0
1980-07-26,47.0
1980-07-27,46.0
1980-07-28,45.0
1980-07-29,44.0
1980-07-30,43.0
1980-07-31,41.0
1980-08-01,42.0
1980-08-02,44.0
1980-08-03,42.0
1980-08-04,42.0
1980-08-05,42.0
1980-08-06,42.0
1980-08-07,44.0
1980-08-08,45.0
1980-08-09,45.0
1980-08-10,45.0
1980-08-11,45.0
1980-08-12,45.0
1980-08-13,45.0
1980-08-14,45.0
1980-08-15,44.0
1980-08-16,44.0
1980-08-17,42.0
1980-08-18,42.0
1980-08-19,45.0
1980-08-20,45.0
1980-08-21,44.0
1980-08-22,45.0
1980-08-23,42.0
1980-08-24,42.0
1980-08-25,42.0
1980-08-26,42.0
1980-08-27,42.0
1980-08-28,42.0
1980-08-29,42.0
1980-08-30,42.0
1980-08-31,42.0
1980-09-01,42.0
1980-09-02,42.0
1980-09-03,42.0
1980-09-04,42.0
1980-09-05,42.0
1980-09-06,42.0
1980-09-07,43.0
1980-09-08,42.0
1980-09-09,42.0
1980-09-10,43.0
1980-09-11,45.0
1980-09-12,44.0
1980-09-13,46.0
1980-09-14,46.0
1980-09-15,44.0
1980-09-16,44.0
1980-09-17,44.0
1980-09-18,46.0
1980-09-19,45.0
1980-09-20,45.0
1980-09-21,44.0
1980-09-22,45.0
1980-09-23,45.0
1980-09-24,45.0
1980-09-25,45.0
1980-09-26,46.0
1980-09-27,49.0
1980-09-28,51.0
1980-09-29,51.0
1980-09-30,51.0
1980-10-01,51.0
1980-10-02,51.0
1980-10-03,50.0
1980-10-04,49.0
1980-10-05,49.0
1980-10-06,50.0
1980-10-07,48.0
1980-10-08,48.0
1980-10-09,49.0
1980-10-10,49.0
1980-10-11,50.0
1980-10-12,50.0
1980-10-13,50.0
1980-10-14,49.0
1980-10-15,49.0
1980-10-16,48.0
1980-10-17,48.0
1980-10-18,48.0
1980-10-19,49.0
1980-10-20,50.0
1980-10-21,50.0
1980-10-22,51.0
1980-10-23,52.0
1980-10-24,53.0
1980-10-25,53.0
1980-10-26,54.0
1980-10-27,53.0
1980-10-28,53.0
1980-10-29,53.0
1980-10-30,53.0
1980-10-31,53.0
1980-11-01,52.0
1980-11-02,52.0
1980-11-03,52.0
1980-11-04,51.0
1980-11-05,52.0
1980-11-06,58.0
1980-11-07,57.0
1980-11-08,54.0
1980-11-09,53.0
1980-11-10,53.0
1980-11-11,52.0
1980-11-12,52.0
1980-11-13,52.0
1980-11-14,52.0
1980-11-15,52.0
1980-11-16,53.0
1980-11-17,52.0
1980-11-18,53.0
1980-11-19,53.0
1980-11-20,53.0
1980-11-21,55.0
1980-11-22,60.0
1980-11-23,60.0
1980-11-24,60.0
1980-11-25,58.0
1980-11-26,57.0
1980-11-27,57.0
1980-11-28,57.0
1980-11-29,57.0
1980-11-30,57.0
1980-12-01,57.0
1980-12-02,63.0
1980-12-03,72.0
1980-12-04,69.0
1980-12-05,63.0
1980-12-06,57.0
1980-12-07,52.0
1980-12-08,52.0
1980-12-09,52.0
1980-12-10,52.0
1980-12-11,52.0
1980-12-12,52.0
1980-12-13,52.0
1980-12-14,54.0
1980-12-15,56.0
1980-12-16,59.0
1980-12-17,59.0
1980-12-18,59.0
1980-12-19,59.0
1980-12-20,60.0
1980-12-21,62.0
1980-12-22,64.0
1980-12-23,62.0
1980-12-24,63.0
1980-12-25,67.0
1980-12-26,66.0
1980-12-27,65.0
1980-12-28,64.0
1980-12-29,64.0
1980-12-30,64.0
1980-12-31,63.0
1981-01-01,63.0
1981-01-02,62.0
1981-01-03,61.0
1981-01-04,61.0
1981-01-05,61.0
1981-01-06,60.0
1981-01-07,60.0
1981-01-08,60.0
1981-01-09,60.0
1981-01-10,59.0
1981-01-11,59.0
1981-01-12,59.0
1981-01-13,58.0
1981-01-14,57.0
1981-01-15,58.0
1981-01-16,58.0
1981-01-17,59.0
1981-01-18,59.0
1981-01-19,58.0
1981-01-20,59.0
1981-01-21,60.0
1981-01-22,62.0
1981-01-23,64.0
1981-01-24,62.0
1981-01-25,60.0
1981-01-26,58.0
1981-01-27,60.0
1981-01-28,66.0
1981-01-29,68.0
1981-01-30,68.0
1981-01-31,60.0
1981-02-01,58.0
1981-02-02,58.0
1981-02-03,58.0
1981-02-04,58.0
1981-02-05,58.0
1981-02-06,58.0
1981-02-07,58.0
1981-02-08,58.0
1981-02-09,58.0
1981-02-10,60.0
1981-02-11,63.0
1981-02-12,67.0
1981-02-13,75.0
1981-02-14,100.0
1981-02-15,130.0
1981-02-16,100.0
1981-02-17,110.0
1981-02-18,100.0
1981-02-19,90.0
1981-02-20,100.0
1981-02-21,75.0
1981-02-22,66.0
1981-02-23,62.0
1981-02-24,60.0
1981-02-25,59.0
1981-02-26,59.0
1981-02-27,58.0
1981-02-28,59.0
1981-03-01,59.0
1981-03-02,58.0
1981-03-03,58.0
1981-03-04,58.0
1981-03-05,57.0
1981-03-06,57.0
1981-03-07,58.0
1981-03-08,57.0
1981-03-09,57.0
1981-03-10,57.0
1981-03-11,57.0
1981-03-12,57.0
1981-03-13,57.0
1981-03-14,57.0
1981-03-15,56.0
1981-03-16,56.0
1981-03-17,55.0
1981-03-18,55.0
1981-03-19,57.0
1981-03-20,57.0
1981-03-21,56.0
1981-03-22,56.0
1981-03-23,56.0
1981-03-24,56.0
1981-03-25,58.0
1981-03-26,58.0
1981-03-27,57.0
1981-03-28,56.0
1981-03-29,56.0
1981-03-30,56.0
1981-03-31,56.0
1981-04-01,57.0
1981-04-02,56.0
1981-04-03,57.0
1981-04-04,56.0
1981-04-05,56.0
1981-04-06,55.0
1981-04-07,55.0
1981-04-08,56.0
1981-04-09,55.0
1981-04-10,54.0
1981-04-11,55.0
1981-04-12,54.0
1981-04-13,54.0
1981-04-14,53.0
1981-04-15,50.0
1981-04-16,49.0
1981-04-17,48.0
1981-04-18,48.0
1981-04-19,48.0
1981-04-20,48.0
1981-04-21,47.0
1981-04-22,47.0
1981-04-23,47.0
1981-04-24,47.0
1981-04-25,47.0
1981-04-26,47.0
1981-04-27,47.0
1981-04-28,47.0
1981-04-29,47.0
1981-04-30,47.0
1981-05-01,47.0
1981-05-02,47.0
1981-05-03,47.0
1981-05-04,47.0
1981-05-05,47.0
1981-05-06,47.0
1981-05-07,47.0
1981-05-08,47.0
1981-05-09,47.0
1981-05-10,47.0
1981-05-11,47.0
1981-05-12,47.0
1981-05-13,47.0
1981-05-14,47.0
1981-05-15,47.0
1981-05-16,49.0
1981-05-17,49.0
1981-05-18,49.0
1981-05-19,49.0
1981-05-20,49.0
1981-05-21,49.0
1981-05-22,49.0
1981-05-23,49.0
1981-05-24,49.0
1981-05-25,49.0
1981-05-26,49.0
1981-05-27,49.0
1981-05-28,49.0
1981-05-29,49.0
1981-05-30,49.0
1981-05-31,49.0
1981-06-01,49.0
1981-06-02,49.0
1981-06-03,49.0
1981-06-04,49.0
1981-06-05,49.0
1981-06-06,49.0
1981-06-07,49.0
1981-06-08,53.0
1981-06-09,53.0
1981-06-10,50.0
1981-06-11,49.0
1981-06-12,50.0
1981-06-13,50.0
1981-06-14,50.0
1981-06-15,49.0
1981-06-16,48.0
1981-06-17,47.0
1981-06-18,51.0
1981-06-19,51.0
1981-06-20,48.0
1981-06-21,47.0
1981-06-22,46.0
1981-06-23,45.0
1981-06-24,44.0
1981-06-25,46.0
1981-06-26,46.0
1981-06-27,42.0
1981-06-28,45.0
1981-06-29,45.0
1981-06-30,44.0
1981-07-01,43.0
1981-07-02,42.0
1981-07-03,43.0
1981-07-04,42.0
1981-07-05,43.0
1981-07-06,43.0
1981-07-07,42.0
1981-07-08,42.0
1981-07-09,41.0
1981-07-10,41.0
1981-07-11,40.0
1981-07-12,40.0
1981-07-13,41.0
1981-07-14,41.0
1981-07-15,40.0
1981-07-16,37.0
1981-07-17,37.0
1981-07-18,34.0
1981-07-19,37.0
1981-07-20,38.0
1981-07-21,40.0
1981-07-22,39.0
1981-07-23,39.0
1981-07-24,38.0
1981-07-25,36.0
1981-07-26,36.0
1981-07-27,36.0
1981-07-28,37.0
1981-07-29,38.0
1981-07-30,39.0
1981-07-31,39.0
1981-08-01,39.0
1981-08-02,39.0
1981-08-03,39.0
1981-08-04,39.0
1981-08-05,37.0
1981-08-06,37.0
1981-08-07,36.0
1981-08-08,38.0
1981-08-09,38.0
1981-08-10,38.0
1981-08-11,37.0
1981-08-12,34.0
1981-08-13,39.0
1981-08-14,37.0
1981-08-15,37.0
1981-08-16,39.0
1981-08-17,39.0
1981-08-18,39.0
1981-08-19,38.0
1981-08-20,36.0
1981-08-21,38.0
1981-08-22,39.0
1981-08-23,39.0
1981-08-24,39.0
1981-08-25,39.0
1981-08-26,39.0
1981-08-27,39.0
1981-08-28,40.0
1981-08-29,40.0
1981-08-30,40.0
1981-08-31,40.0
1981-09-01,39.0
1981-09-02,37.0
1981-09-03,37.0
1981-09-04,37.0
1981-09-05,40.0
1981-09-06,40.0
1981-09-07,40.0
1981-09-08,40.0
1981-09-09,40.0
1981-09-10,39.0
1981-09-11,40.0
1981-09-12,40.0
1981-09-13,41.0
1981-09-14,41.0
1981-09-15,41.0
1981-09-16,41.0
1981-09-17,41.0
1981-09-18,41.0
1981-09-19,41.0
1981-09-20,41.0
1981-09-21,41.0
1981-09-22,41.0
1981-09-23,41.0
1981-09-24,41.0
1981-09-25,41.0
1981-09-26,41.0
1981-09-27,44.0
1981-09-28,44.0
1981-09-29,42.0
1981-09-30,42.0
1981-10-01,42.0
1981-10-02,42.0
1981-10-03,42.0
1981-10-04,42.0
1981-10-05,42.0
1981-10-06,42.0
1981-10-07,45.0
1981-10-08,43.0
1981-10-09,44.0
1981-10-10,46.0
1981-10-11,49.0
1981-10-12,57.0
1981-10-13,58.0
1981-10-14,58.0
1981-10-15,57.0
1981-10-16,56.0
1981-10-17,54.0
1981-10-18,51.0
1981-10-19,45.0
1981-10-20,44.0
1981-10-21,44.0
1981-10-22,44.0
1981-10-23,47.0
1981-10-24,51.0
1981-10-25,51.0
1981-10-26,53.0
1981-10-27,54.0
1981-10-28,54.0
1981-10-29,54.0
1981-10-30,53.0
1981-10-31,53.0
1981-11-01,52.0
1981-11-02,52.0
1981-11-03,52.0
1981-11-04,52.0
1981-11-05,51.0
1981-11-06,51.0
1981-11-07,51.0
1981-11-08,51.0
1981-11-09,51.0
1981-11-10,51.0
1981-11-11,51.0
1981-11-12,54.0
1981-11-13,54.0
1981-11-14,55.0
1981-11-15,59.0
1981-11-16,69.0
1981-11-17,66.0
1981-11-18,60.0
1981-11-19,60.0
1981-11-20,61.0
1981-11-21,63.0
1981-11-22,66.0
1981-11-23,68.0
1981-11-24,71.0
1981-11-25,70.0
1981-11-26,66.0
1981-11-27,63.0
1981-11-28,61.0
1981-11-29,60.0
1981-11-30,60.0
1981-12-01,62.0
1981-12-02,63.0
1981-12-03,64.0
1981-12-04,62.0
1981-12-05,62.0
1981-12-06,67.0
1981-12-07,68.0
1981-12-08,64.0
1981-12-09,64.0
1981-12-10,64.0
1981-12-11,62.0
1981-12-12,62.0
1981-12-13,63.0
1981-12-14,66.0
1981-12-15,73.0
1981-12-16,68.0
1981-12-17,66.0
1981-12-18,71.0
1981-12-19,84.0
1981-12-20,86.0
1981-12-21,81.0
1981-12-22,77.0
1981-12-23,76.0
1981-12-24,76.0
1981-12-25,76.0
1981-12-26,76.0
1981-12-27,76.0
1981-12-28,74.0
1981-12-29,75.0
1981-12-30,74.0
1981-12-31,72.0
1982-01-01,65.0
1982-01-02,64.0
1982-01-03,64.0
1982-01-04,66.0
1982-01-05,60.0
1982-01-06,55.0
1982-01-07,50.0
1982-01-08,51.0
1982-01-09,58.0
1982-01-10,60.0
1982-01-11,60.0
1982-01-12,68.0
1982-01-13,65.0
1982-01-14,62.0
1982-01-15,61.0
1982-01-16,61.0
1982-01-17,61.0
1982-01-18,62.0
1982-01-19,61.0
1982-01-20,61.0
1982-01-21,61.0
1982-01-22,60.0
1982-01-23,61.0
1982-01-24,60.0
1982-01-25,62.0
1982-01-26,64.0
1982-01-27,64.0
1982-01-28,64.0
1982-01-29,62.0
1982-01-30,62.0
1982-01-31,60.0
1982-02-01,59.0
1982-02-02,59.0
1982-02-03,59.0
1982-02-04,58.0
1982-02-05,55.0
1982-02-06,55.0
1982-02-07,56.0
1982-02-08,55.0
1982-02-09,55.0
1982-02-10,54.0
1982-02-11,54.0
1982-02-12,54.0
1982-02-13,57.0
1982-02-14,66.0
1982-02-15,75.0
1982-02-16,90.0
1982-02-17,92.0
1982-02-18,88.0
1982-02-19,100.0
1982-02-20,108.0
1982-02-21,134.0
1982-02-22,145.0
1982-02-23,147.0
1982-02-24,137.0
1982-02-25,135.0
1982-02-26,134.0
1982-02-27,136.0
1982-02-28,134.0
1982-03-01,138.0
1982-03-02,137.0
1982-03-03,125.0
1982-03-04,118.0
1982-03-05,111.0
1982-03-06,108.0
1982-03-07,108.0
1982-03-08,107.0
1982-03-09,105.0
1982-03-10,105.0
1982-03-11,118.0
1982-03-12,111.0
1982-03-13,110.0
1982-03-14,120.0
1982-03-15,121.0
1982-03-16,116.0
1982-03-17,118.0
1982-03-18,121.0
1982-03-19,116.0
1982-03-20,112.0
1982-03-21,110.0
1982-03-22,109.0
1982-03-23,107.0
1982-03-24,105.0
1982-03-25,104.0
1982-03-26,105.0
1982-03-27,104.0
1982-03-28,106.0
1982-03-29,109.0
1982-03-30,108.0
1982-03-31,109.0
1982-04-01,108.0
1982-04-02,108.0
1982-04-03,110.0
1982-04-04,108.0
1982-04-05,108.0
1982-04-06,107.0
1982-04-07,108.0
1982-04-08,108.0
1982-04-09,110.0
1982-04-10,122.0
1982-04-11,159.0
1982-04-12,167.0
1982-04-13,167.0
1982-04-14,176.0
1982-04-15,173.0
1982-04-16,169.0
1982-04-17,166.0
1982-04-18,161.0
1982-04-19,158.0
1982-04-20,155.0
1982-04-21,154.0
1982-04-22,155.0
1982-04-23,158.0
1982-04-24,164.0
1982-04-25,172.0
1982-04-26,179.0
1982-04-27,183.0
1982-04-28,187.0
1982-04-29,188.0
1982-04-30,190.0
1982-05-01,193.0
1982-05-02,196.0
1982-05-03,199.0
1982-05-04,199.0
1982-05-05,199.0
1982-05-06,197.0
1982-05-07,198.0
1982-05-08,200.0
1982-05-09,199.0
1982-05-10,193.0
1982-05-11,186.0
1982-05-12,181.0
1982-05-13,177.0
1982-05-14,176.0
1982-05-15,175.0
1982-05-16,174.0
1982-05-17,177.0
1982-05-18,190.0
1982-05-19,186.0
1982-05-20,179.0
1982-05-21,175.0
1982-05-22,175.0
1982-05-23,172.0
1982-05-24,167.0
1982-05-25,164.0
1982-05-26,163.0
1982-05-27,162.0
1982-05-28,159.0
1982-05-29,154.0
1982-05-30,146.0
1982-05-31,139.0
1982-06-01,136.0
1982-06-02,133.0
1982-06-03,129.0
1982-06-04,139.0
1982-06-05,142.0
1982-06-06,136.0
1982-06-07,129.0
1982-06-08,124.0
1982-06-09,120.0
1982-06-10,118.0
1982-06-11,116.0
1982-06-12,119.0
1982-06-13,121.0
1982-06-14,120.0
1982-06-15,119.0
1982-06-16,118.0
1982-06-17,118.0
1982-06-18,120.0
1982-06-19,119.0
1982-06-20,122.0
1982-06-21,123.0
1982-06-22,123.0
1982-06-23,114.0
1982-06-24,110.0
1982-06-25,107.0
1982-06-26,104.0
1982-06-27,114.0
1982-06-28,114.0
1982-06-29,123.0
1982-06-30,121.0
1982-07-01,117.0
1982-07-02,115.0
1982-07-03,126.0
1982-07-04,117.0
1982-07-05,111.0
1982-07-06,107.0
1982-07-07,110.0
1982-07-08,105.0
1982-07-09,100.0
1982-07-10,97.0
1982-07-11,94.0
1982-07-12,92.0
1982-07-13,90.0
1982-07-14,88.0
1982-07-15,86.0
1982-07-16,85.0
1982-07-17,82.0
1982-07-18,73.0
1982-07-19,71.0
1982-07-20,69.0
1982-07-21,69.0
1982-07-22,70.0
1982-07-23,70.0
1982-07-24,71.0
1982-07-25,71.0
1982-07-26,70.0
1982-07-27,70.0
1982-07-28,71.0
1982-07-29,70.0
1982-07-30,72.0
1982-07-31,71.0
1982-08-01,71.0
1982-08-02,69.0
1982-08-03,71.0
1982-08-04,72.0
1982-08-05,72.0
1982-08-06,72.0
1982-08-07,71.0
1982-08-08,71.0
1982-08-09,71.0
1982-08-10,70.0
1982-08-11,68.0
1982-08-12,68.0
1982-08-13,69.0
1982-08-14,68.0
1982-08-15,68.0
1982-08-16,69.0
1982-08-17,68.0
1982-08-18,67.0
1982-08-19,66.0
1982-08-20,66.0
1982-08-21,65.0
1982-08-22,65.0
1982-08-23,64.0
1982-08-24,63.0
1982-08-25,62.0
1982-08-26,62.0
1982-08-27,64.0
1982-08-28,63.0
1982-08-29,64.0
1982-08-30,66.0
1982-08-31,65.0
1982-09-01,65.0
1982-09-02,65.0
1982-09-03,65.0
1982-09-04,65.0
1982-09-05,65.0
1982-09-06,65.0
1982-09-07,64.0
1982-09-08,63.0
1982-09-09,64.0
1982-09-10,64.0
1982-09-11,62.0
1982-09-12,65.0
1982-09-13,65.0
1982-09-14,65.0
1982-09-15,65.0
1982-09-16,64.0
1982-09-17,64.0
1982-09-18,67.0
1982-09-19,68.0
1982-09-20,77.0
1982-09-21,73.0
1982-09-22,69.0
1982-09-23,67.0
1982-09-24,68.0
1982-09-25,67.0
1982-09-26,68.0
1982-09-27,72.0
1982-09-28,73.0
1982-09-29,72.0
1982-09-30,70.0
1982-10-01,70.0
1982-10-02,69.0
1982-10-03,68.0
1982-10-04,68.0
1982-10-05,68.0
1982-10-06,66.0
1982-10-07,66.0
1982-10-08,65.0
1982-10-09,64.0
1982-10-10,62.0
1982-10-11,61.0
1982-10-12,61.0
1982-10-13,61.0
1982-10-14,61.0
1982-10-15,61.0
1982-10-16,61.0
1982-10-17,61.0
1982-10-18,61.0
1982-10-19,61.0
1982-10-20,60.0
1982-10-21,61.0
1982-10-22,62.0
1982-10-23,65.0
1982-10-24,72.0
1982-10-25,74.0
1982-10-26,73.0
1982-10-27,69.0
1982-10-28,67.0